Tracking 29892 objects as of 21-Nov-2024
HD Live streaming from Space Station
objects crossing your sky now

COSMOS 2214

Track COSMOS 2214 now!
10-day predictions
COSMOS 2214 is classified as:


NORAD ID: 22185
Int'l Code: 1992-068D
Perigee: 1,416.7 km
Apogee: 1,430.4 km
Inclination: 82.6 °
Period: 114.1 minutes
Semi major axis: 7794 km
RCS: 1.1573 m2 (large)
Launch date: October 20, 1992
Source: Commonwealth of Independent States (former USSR) (CIS)
Launch site: PLESETSK MISSILE AND SPACE COMPLEX (PKMTR)
Your satellite tracking list
Your tracking list is empty




NASA's NSSDC Master Catalog

Two Line Element Set (TLE):
1 22185U 92068D   24325.56154663  .00000031  00000-0  11646-3 0  9990
2 22185  82.5937 358.6586 0008813  18.1485 150.6452 12.61581447477316
Source of the keplerian elements: AFSPC